Retour au catalogue

STARLINK-5025

ActifCommunicationsVLEO
NORAD 53920·PAYLOAD·🇺🇸 United States

Lancé Sep 24, 2022 depuis Cape Canaveral Space Force Station

Loading…

Prochains Passages (prochaines 24 heures)

TLE

FraisSource: CelesTrak SupGP

Époque: Sep 14, 2026, 21:00 UTC

1 53920C 22119AL  26257.87548611 -.00019433  00000+0 -62479-3 0  2575
2 53920  53.1592 174.0286 0001553  95.9308 155.9832 15.31717220    15

Suivez STARLINK-5025 en temps réel avec AllMySat

Download on the App Store